Date String (YYYY-MM-DD hh:mm:ss) UTC,Instrument flags,Ambient pressure (hPa),Sample flow (lpm),Bypass flow (lpm),Sample temperature (°C),Ambient temperature (°C),ASC tube jacket temperature (°C),LED temperature (°C),Box temperature (°C),Sample RH (%),Span deviation,Mass concentration (μg/m³),Mass concentration (μg/m³),Mass concentration (μg/m³)
DateTimeUTC,F1_M11,P_M11,Q1_M11,Q2_M11,T1_M11,T2_M11,T3_M11,T4_M11,T5_M11,U1_M11,ZSPAN_M11,X0_M11,X2_M11,X1_M11
2023-05-26 22:00:00,,0829.8,5.01,0.00,29.4,28.1,00.0,37.7,31.1,25.7,0000.0,0007.62,0003.61,0002.77
2023-05-26 22:01:00,,0829.8,4.99,0.00,29.4,28.1,00.0,37.7,31.1,27.1,0000.0,0008.08,0003.59,0002.77
2023-05-26 22:02:00,,0829.8,4.99,0.00,29.4,28.1,00.0,37.7,31.1,27.9,0000.0,0008.35,0003.59,0002.76
2023-05-26 22:03:00,,0829.7,5.01,0.00,29.5,28.0,00.0,37.7,31.1,27.9,0000.0,0008.21,0003.60,0002.75
2023-05-26 22:04:00,,0829.8,5.01,0.00,29.4,28.0,00.0,37.7,31.1,26.7,0000.0,0008.19,0003.58,0002.75
2023-05-26 22:05:00,,0829.8,5.01,0.00,29.4,27.9,00.0,37.7,31.1,27.2,0000.0,0008.21,0003.62,0002.79
2023-05-26 22:06:00,,0829.7,5.01,0.00,29.4,27.9,00.0,37.7,31.1,26.9,0000.0,0008.25,0003.61,0002.81
2023-05-26 22:07:00,,0829.8,4.99,0.00,29.4,27.9,00.0,37.8,31.0,25.4,0000.0,0008.40,0003.61,0002.81
2023-05-26 22:08:00,,0829.7,4.99,0.00,29.4,27.9,00.0,37.8,31.0,24.4,0000.0,0008.20,0003.59,0002.81
2023-05-26 22:09:00,,0829.7,4.99,0.00,29.4,27.9,00.0,37.8,31.1,23.8,0000.0,0008.20,0003.59,0002.80
2023-05-26 22:10:00,,0829.7,5.00,0.00,29.4,27.9,00.0,37.8,31.1,23.4,0000.0,0007.99,0003.55,0002.78
2023-05-26 22:11:00,,0829.7,5.00,0.00,29.4,27.9,00.0,37.8,31.1,23.2,0000.0,0007.91,0003.51,0002.76
2023-05-26 22:12:00,,0829.7,5.01,0.00,29.5,28.0,00.0,37.8,31.1,22.8,0000.0,0007.19,0003.44,0002.72
2023-05-26 22:13:00,,0829.7,5.00,0.00,29.5,28.0,00.0,37.8,31.1,22.8,0000.0,0006.35,0003.39,0002.66
2023-05-26 22:14:00,,0829.7,5.00,0.00,29.5,28.1,00.0,37.8,31.1,24.5,0000.0,0006.31,0003.38,0002.66
2023-05-26 22:15:00,,0829.7,4.99,0.00,29.5,28.1,00.0,37.8,31.2,25.4,0000.0,0006.49,0003.41,0002.70
2023-05-26 22:16:00,,0829.8,4.99,0.00,29.5,28.1,00.0,37.8,31.2,25.2,0000.0,0006.84,0003.41,0002.71
2023-05-26 22:17:00,,0829.8,5.00,0.00,29.5,28.1,00.0,37.8,31.2,25.6,0000.0,0006.68,0003.40,0002.70
2023-05-26 22:18:00,,0829.8,5.00,0.00,29.5,28.1,00.0,37.9,31.2,26.7,0000.0,0005.89,0003.34,0002.68
2023-05-26 22:19:00,,0829.8,5.00,0.00,29.5,28.1,00.0,37.9,31.1,27.5,0000.0,0005.84,0003.32,0002.68
2023-05-26 22:20:00,,0829.8,5.00,0.00,29.5,28.1,00.0,37.9,31.1,27.4,0000.0,0005.82,0003.32,0002.69
2023-05-26 22:21:00,,0829.8,5.01,0.00,29.5,28.1,00.0,37.9,31.1,27.6,0000.0,0005.99,0003.34,0002.70
2023-05-26 22:22:00,,0829.8,5.00,0.00,29.5,28.1,00.0,37.9,31.2,27.6,0000.0,0007.30,0003.37,0002.70
2023-05-26 22:23:00,,0829.7,5.01,0.00,29.6,28.0,00.0,37.9,31.2,26.9,0000.0,0007.49,0003.42,0002.71
2023-05-26 22:24:00,,0829.7,5.00,0.00,29.6,28.0,00.0,37.9,31.2,27.8,0000.0,0007.65,0003.49,0002.73
2023-05-26 22:25:00,,0829.7,4.99,0.00,29.6,28.0,00.0,37.9,31.2,27.6,0000.0,0007.76,0003.51,0002.72
2023-05-26 22:26:00,,0829.7,4.99,0.00,29.5,28.0,00.0,37.9,31.1,26.7,0000.0,0007.93,0003.50,0002.65
2023-05-26 22:27:00,,0829.7,5.00,0.00,29.5,27.9,00.0,37.9,31.1,26.8,0000.0,0007.77,0003.46,0002.57
2023-05-26 22:28:00,,0829.6,5.00,0.00,29.5,27.9,00.0,37.9,31.1,26.7,0000.0,0007.64,0003.40,0002.50
2023-05-26 22:29:00,,0829.5,5.00,0.00,29.5,27.9,00.0,37.9,31.1,25.5,0000.0,0007.66,0003.41,0002.45
2023-05-26 22:30:00,,0829.5,5.01,0.00,29.5,28.0,00.0,37.9,31.1,26.6,0000.0,0008.05,0003.43,0002.38
2023-05-26 22:31:00,,0829.5,5.01,0.00,29.5,28.0,00.0,37.9,31.1,26.3,0000.0,0008.08,0003.40,0002.32
2023-05-26 22:32:00,,0829.4,4.99,0.00,29.5,28.0,00.0,37.9,31.1,25.6,0000.0,0008.07,0003.40,0002.27
2023-05-26 22:33:00,,0829.3,4.99,0.00,29.6,28.0,00.0,37.9,31.2,25.3,0000.0,0007.67,0003.41,0002.21
2023-05-26 22:34:00,,0829.3,4.99,0.00,29.6,28.1,00.0,37.9,31.2,25.5,0000.0,0007.42,0003.37,0002.16
2023-05-26 22:35:00,,0829.4,5.00,0.00,29.6,28.1,00.0,37.9,31.2,25.5,0000.0,0007.40,0003.36,0002.12
2023-05-26 22:36:00,,0829.3,5.00,0.00,29.6,28.1,00.0,37.9,31.2,24.1,0000.0,0007.18,0003.28,0002.05
2023-05-26 22:37:00,,0829.2,5.00,0.00,29.6,28.1,00.0,37.9,31.2,24.2,0000.0,0006.69,0003.23,0001.99
2023-05-26 22:38:00,,0829.2,5.00,0.00,29.6,28.1,00.0,38.0,31.2,25.0,0000.0,0006.27,0003.17,0001.95
2023-05-26 22:39:00,,0829.2,5.00,0.00,29.6,28.1,00.0,38.0,31.2,27.2,0000.0,0007.09,0003.19,0001.94
2023-05-26 22:40:00,,0829.1,5.00,0.00,29.6,28.1,00.0,38.0,31.2,27.3,0000.0,0007.67,0003.24,0001.94
2023-05-26 22:41:00,,0829.2,5.00,0.00,29.6,28.1,00.0,38.0,31.2,28.4,0000.0,0007.66,0003.19,0001.94
2023-05-26 22:42:00,,0829.2,4.99,0.00,29.6,28.2,00.0,38.0,31.2,28.7,0000.0,0007.57,0003.19,0001.94
2023-05-26 22:43:00,,0829.2,4.99,0.00,29.6,28.2,00.0,38.0,31.2,25.2,0000.0,0007.52,0003.16,0001.90
2023-05-26 22:44:00,,0829.2,5.01,0.00,29.7,28.2,00.0,38.0,31.3,25.1,0000.0,0007.26,0003.05,0001.86
2023-05-26 22:45:00,,0829.2,5.02,0.00,29.7,28.3,00.0,38.0,31.3,24.9,0000.0,0007.29,0003.05,0001.84
2023-05-26 22:46:00,,0829.1,5.00,0.00,29.7,28.3,00.0,38.0,31.3,25.7,0000.0,0007.20,0002.96,0001.80
2023-05-26 22:47:00,,0829.1,4.99,0.00,29.7,28.3,00.0,38.0,31.3,24.6,0000.0,0007.13,0002.91,0001.78
2023-05-26 22:48:00,,0829.1,4.99,0.00,29.7,28.3,00.0,38.0,31.3,25.1,0000.0,0007.08,0002.89,0001.79
2023-05-26 22:49:00,,0829.1,4.99,0.00,29.7,28.3,00.0,38.0,31.3,25.0,0000.0,0007.08,0002.88,0001.77
2023-05-26 22:50:00,,0829.1,5.00,0.00,29.7,28.3,00.0,38.1,31.3,25.4,0000.0,0006.30,0002.78,0001.73
2023-05-26 22:51:00,,0829.2,5.01,0.00,29.7,28.3,00.0,38.1,31.3,24.3,0000.0,0005.55,0002.63,0001.69
2023-05-26 22:52:00,,0829.1,5.00,0.00,29.7,28.3,00.0,38.1,31.3,25.4,0000.0,0004.60,0002.53,0001.64
2023-05-26 22:53:00,,0829.1,5.00,0.00,29.8,28.3,00.0,38.1,31.3,24.8,0000.0,0004.46,0002.48,0001.61
2023-05-26 22:54:00,,0829.1,5.00,0.00,29.8,28.3,00.0,38.1,31.3,24.8,0000.0,0004.57,0002.47,0001.60
2023-05-26 22:55:00,,0829.1,5.00,0.00,29.8,28.3,00.0,38.1,31.3,24.8,0000.0,0004.75,0002.53,0001.61
2023-05-26 22:56:00,,0829.1,4.99,0.00,29.8,28.3,00.0,38.1,31.4,23.8,0000.0,0004.51,0002.45,0001.59
2023-05-26 22:57:00,,0829.1,4.99,0.00,29.8,28.3,00.0,38.1,31.4,24.4,0000.0,0004.24,0002.34,0001.56
2023-05-26 22:58:00,,0829.1,5.02,0.00,29.8,28.4,00.0,38.1,31.4,24.5,0000.0,0004.19,0002.33,0001.55
2023-05-26 22:59:00,,0829.1,5.01,0.00,29.8,28.4,00.0,38.1,31.4,25.4,0000.0,0004.18,0002.34,0001.55
